Location: Famechon
(49.7599°N, 2.0615°E)
Time: 06:55:05
(UTC+00:00)

ATLAS 2AS CENTAUR R/B - Pass Details

Date: 03 February 2023
Orbit: 986 x 1226 km, 63.7° (Epoch: 27 March)

Event Time Altitude Azimuth Distance (km) Brightness Sun altitude
Rises 18:21:45 0° 316° (NW) 3,977 6.2 -15.0°
Reaches altitude 10° 18:24:33 10° 313° (NW) 2,978 5.6 -15.5°
Maximum altitude 18:31:24 58° 237° (WSW) 1,229 3.3 -16.6°
Drops below altitude 10° 18:37:51 10° 161° (SSE) 2,804 4.8 -17.6°
Sets 18:40:25 0° 157° (SSE) 3,728 5.4 -18.0°
